FW0064 Weather Reports


Display with metric or nautical units.
time (UTC)temp
F
wind
direction
speed
MPH
gust
MPH
rain 1hr
in
rain 24hr
in
rain mn
in
humidity
%
barometer
mb
20260906220024 92 246 6.0 11.0 0.00 0.00 0.00 19 1003.1
20260906214512 94 222 3.0 11.0 0.00 0.00 0.00 18 1003.5
20260906213010 93 348 1.0 8.0 0.00 0.00 0.00 19 1003.8
20260906211509 93 53 0.0 4.0 0.00 0.00 0.00 19 1004.0
20260906210004 90 74 1.0 5.0 0.00 0.00 0.00 21 1004.4
20260906204501 88 26 1.0 3.0 0.00 0.00 0.00 22 1004.6
20260906203059 88 25 0.0 3.0 0.00 0.00 0.00 21 1004.8
20260906201611 87 278 0.0 2.0 0.00 0.00 0.00 22 1005.1
20260906200056 90 347 1.0 4.0 0.00 0.00 0.00 20 1005.1
20260906194555 88 323 1.0 6.0 0.00 0.00 0.00 23 1005.4
20260906193055 85 346 1.0 3.0 0.00 0.00 0.00 23 1005.6
20260906191555 84 265 1.0 8.0 0.00 0.00 0.00 24 1005.9
20260906190050 89 233 3.0 7.0 0.00 0.00 0.00 22 1006.2
20260906184548 89 70 2.0 12.0 0.00 0.00 0.00 23 1006.3
20260906183107 87 98 1.0 9.0 0.00 0.00 0.00 24 1006.7
20260906181541 85 138 1.0 4.0 0.00 0.00 0.00 25 1007.0
20260906180055 83 234 1.0 9.0 0.00 0.00 0.00 26 1007.2
20260906174540 85 288 3.0 8.0 0.00 0.00 0.00 26 1007.5
20260906173035 83 360 1.0 5.0 0.00 0.00 0.00 27 1007.7
20260906171536 82 156 1.0 3.0 0.00 0.00 0.00 29 1008.0
20260906170035 80 103 0.0 3.0 0.00 0.00 0.00 32 1008.1
20260906164524 78 121 1.0 4.0 0.00 0.00 0.00 35 1008.2
20260906163020 75 171 1.0 6.0 0.00 0.00 0.00 36 1008.3
20260906161516 73 186 1.0 3.0 0.00 0.00 0.00 43 1008.5
20260906160019 71 196 1.0 3.0 0.00 0.00 0.00 47 1008.4
20260906154507 68 138 0.0 3.0 0.00 0.00 0.00 51 1008.5
20260906153003 66 98 1.0 4.0 0.00 0.00 0.00 55 1008.5
20260906151559 62 139 1.0 2.0 0.00 0.00 0.00 61 1008.7
20260906150059 58 140 0.0 2.0 0.00 0.00 0.00 68 1008.7
20260906144604 55 140 0.0 2.0 0.00 0.00 0.00 75 1008.7
20260906143056 53 140 0.0 2.0 0.00 0.00 0.00 77 1008.5
20260906141553 52 140 0.0 2.0 0.00 0.00 0.00 81 1008.6
20260906140052 51 140 0.0 2.0 0.00 0.00 0.00 82 1008.4
20260906134556 50 140 0.0 2.0 0.00 0.00 0.00 81 1008.5
20260906133056 49 140 0.0 2.0 0.00 0.00 0.00 82 1008.5
20260906131552 49 140 0.0 0.0 0.00 0.00 0.00 80 1008.3
20260906130056 49 140 0.0 2.0 0.00 0.00 0.00 78 1008.2
20260906124544 49 140 0.0 0.0 0.00 0.00 0.00 77 1007.9
20260906123043 49 140 0.0 0.0 0.00 0.00 0.00 77 1007.8
20260906121544 50 140 0.0 1.0 0.00 0.00 0.00 77 1007.5
20260906120039 50 140 0.0 2.0 0.00 0.00 0.00 76 1007.5
20260906114550 50 140 0.0 1.0 0.00 0.00 0.00 76 1007.5
20260906113050 51 140 0.0 2.0 0.00 0.00 0.00 76 1007.5
20260906111533 51 140 0.0 0.0 0.00 0.00 0.00 74 1007.3
20260906110032 51 140 0.0 2.0 0.00 0.00 0.00 74 1007.2
20260906104532 51 140 0.0 2.0 0.00 0.00 0.00 74 1007.1
20260906103029 52 140 0.0 0.0 0.00 0.00 0.00 72 1007.0
20260906101526 53 140 0.0 2.0 0.00 0.00 0.00 71 1006.8
20260906100023 53 140 0.0 2.0 0.00 0.00 0.00 70 1006.8
20260906094521 54 140 0.0 0.0 0.00 0.00 0.00 70 1006.6
20260906093022 54 140 0.0 0.0 0.00 0.00 0.00 69 1006.6
20260906091531 54 140 0.0 1.0 0.00 0.00 0.00 69 1006.6
20260906090019 54 140 0.0 2.0 0.00 0.00 0.00 69 1006.5
20260906084518 54 140 0.0 2.0 0.00 0.00 0.00 69 1006.5
20260906083016 55 140 0.0 2.0 0.00 0.00 0.00 68 1006.5
20260906081520 55 140 0.0 2.0 0.00 0.00 0.00 68 1006.6
20260906080012 56 140 0.0 2.0 0.00 0.00 0.00 67 1006.7
20260906074518 56 140 0.0 2.0 0.00 0.00 0.00 67 1006.5
20260906073009 56 140 0.0 2.0 0.00 0.00 0.00 67 1006.6
20260906071508 57 140 0.0 2.0 0.00 0.00 0.00 66 1006.6
20260906070005 57 140 0.0 2.0 0.00 0.00 0.00 65 1006.6
20260906064505 58 140 0.0 2.0 0.00 0.00 0.00 64 1006.6
20260906063059 59 140 0.0 1.0 0.00 0.00 0.00 63 1006.4
20260906061606 60 140 0.0 2.0 0.00 0.00 0.00 62 1006.2
20260906060052 61 140 0.0 2.0 0.00 0.00 0.00 60 1006.0
20260906054551 61 141 0.0 2.0 0.00 0.00 0.00 59 1006.0
20260906053051 62 140 0.0 2.0 0.00 0.00 0.00 58 1006.0
20260906051600 62 140 0.0 2.0 0.00 0.00 0.00 57 1006.0
20260906050054 63 141 0.0 2.0 0.00 0.00 0.00 56 1005.8
20260906044551 63 141 0.0 2.0 0.00 0.00 0.00 54 1005.7
20260906043048 64 141 0.0 3.0 0.00 0.00 0.00 53 1005.7
20260906041548 66 168 0.0 2.0 0.00 0.00 0.00 52 1005.6
20260906040048 67 168 0.0 2.0 0.00 0.00 0.00 50 1005.6
20260906034547 68 168 0.0 2.0 0.00 0.00 0.00 50 1005.2
20260906033051 68 168 0.0 2.0 0.00 0.00 0.00 48 1004.9
20260906031558 68 168 0.0 2.0 0.00 0.00 0.00 48 1004.8
20260906030045 69 168 0.0 2.0 0.00 0.00 0.00 48 1004.6
20260906024546 69 168 0.0 2.0 0.00 0.00 0.00 45 1004.2
20260906023044 70 168 0.0 2.0 0.00 0.00 0.00 45 1004.1
20260906021545 71 169 0.0 2.0 0.00 0.00 0.00 44 1003.9
20260906020043 74 171 0.0 2.0 0.00 0.00 0.00 44 1003.6
20260906014543 76 181 0.0 0.0 0.00 0.00 0.00 41 1003.4
20260906013043 78 181 0.0 2.0 0.00 0.00 0.00 38 1003.3
20260906011544 81 181 0.0 2.0 0.00 0.00 0.00 36 1003.1
20260906010042 84 181 0.0 2.0 0.00 0.00 0.00 33 1003.0
20260906004541 85 181 1.0 3.0 0.00 0.00 0.00 29 1003.0
20260906003041 86 190 1.0 4.0 0.00 0.00 0.00 28 1003.1
20260906001540 84 319 0.0 2.0 0.00 0.00 0.00 32 1002.5
20260906000039 85 319 0.0 2.0 0.00 0.00 0.00 32 1002.6
20260905234542 86 316 0.0 5.0 0.00 0.00 0.00 31 1003.1
20260905233043 85 71 1.0 4.0 0.00 0.00 0.00 32 1003.1
20260905231538 83 80 0.0 6.0 0.00 0.00 0.00 34 1003.2
20260905230048 82 11 1.0 3.0 0.00 0.00 0.00 36 1003.4
20260905224554 81 338 0.0 10.0 0.00 0.00 0.00 37 1003.1
20260905223036 83 277 7.0 13.0 0.00 0.00 0.00 33 1003.0
20260905221542 85 232 11.0 13.0 0.00 0.00 0.00 30 1003.3
20260905220039 84 261 7.0 15.0 0.00 0.00 0.00 31 1003.4